| time (UTC) | temp F | wind direction | speed knots | gust knots | rain 1hr in | rain 24hr in | rain mn in | humidity % | barometer mb |
| 20260506020005 | 62 | 82 | 0.0 | 3.5 | 0.00 | 0.00 | 0.00 | 66 | 1015.0 |
| 20260506014601 | 63 | 86 | 0.9 | 3.5 | 0.00 | 0.00 | 0.00 | 65 | 1014.9 |
| 20260506013107 | 64 | 104 | 0.9 | 2.6 | 0.00 | 0.00 | 0.00 | 63 | 1014.9 |
| 20260506011607 | 65 | 105 | 0.0 | 3.5 | 0.00 | 0.00 | 0.00 | 63 | 1014.9 |
| 20260506010057 | 65 | 116 | 0.0 | 2.6 | 0.00 | 0.00 | 0.00 | 63 | 1014.9 |
| 20260506004555 | 65 | 116 | 0.0 | 2.6 | 0.00 | 0.00 | 0.00 | 64 | 1014.9 |
| 20260506003055 | 64 | 111 | 0.0 | 3.5 | 0.00 | 0.00 | 0.00 | 63 | 1014.9 |
| 20260506001554 | 63 | 30 | 0.0 | 1.7 | 0.00 | 0.00 | 0.00 | 64 | 1014.9 |
| 20260506000053 | 64 | 19 | 0.0 | 2.6 | 0.00 | 0.00 | 0.00 | 64 | 1015.1 |
| 20260505234602 | 63 | 99 | 0.9 | 2.6 | 0.00 | 0.00 | 0.00 | 63 | 1015.2 |
| 20260505233050 | 63 | 77 | 0.9 | 2.6 | 0.00 | 0.00 | 0.00 | 63 | 1015.4 |
| 20260505231603 | 62 | 81 | 0.9 | 3.5 | 0.00 | 0.00 | 0.00 | 64 | 1015.4 |
| 20260505230051 | 62 | 111 | 0.0 | 2.6 | 0.00 | 0.00 | 0.00 | 64 | 1015.5 |
| 20260505224546 | 62 | 65 | 0.9 | 3.5 | 0.00 | 0.00 | 0.00 | 64 | 1015.6 |
| 20260505223043 | 61 | 290 | 0.9 | 3.5 | 0.00 | 0.00 | 0.00 | 64 | 1015.7 |
| 20260505221541 | 61 | 279 | 1.7 | 4.3 | 0.00 | 0.00 | 0.00 | 65 | 1015.8 |
| 20260505220042 | 61 | 273 | 1.7 | 3.5 | 0.00 | 0.00 | 0.00 | 64 | 1016.0 |
| 20260505214601 | 61 | 275 | 0.9 | 3.5 | 0.00 | 0.00 | 0.00 | 65 | 1016.0 |
| 20260505213039 | 60 | 275 | 0.0 | 3.5 | 0.00 | 0.00 | 0.00 | 65 | 1016.0 |
| 20260505211537 | 60 | 307 | 0.0 | 2.6 | 0.00 | 0.00 | 0.00 | 64 | 1016.1 |
| 20260505210037 | 60 | 181 | 0.0 | 3.5 | 0.00 | 0.00 | 0.00 | 64 | 1016.2 |
| 20260505204535 | 60 | 284 | 0.9 | 3.5 | 0.00 | 0.00 | 0.00 | 65 | 1016.2 |
| 20260505203034 | 59 | 186 | 0.9 | 2.6 | 0.00 | 0.00 | 0.00 | 64 | 1016.3 |
| 20260505201530 | 59 | 146 | 0.0 | 1.7 | 0.00 | 0.00 | 0.00 | 64 | 1016.3 |
| 20260505200040 | 59 | 146 | 0.0 | 2.6 | 0.00 | 0.00 | 0.00 | 64 | 1016.4 |
| 20260505194528 | 58 | 126 | 0.9 | 2.6 | 0.00 | 0.00 | 0.00 | 64 | 1016.4 |
| 20260505193027 | 58 | 360 | 0.0 | 3.5 | 0.00 | 0.00 | 0.00 | 64 | 1016.4 |
| 20260505191525 | 58 | 286 | 0.0 | 3.5 | 0.00 | 0.00 | 0.00 | 64 | 1016.5 |
| 20260505190028 | 58 | 312 | 0.9 | 3.5 | 0.00 | 0.00 | 0.00 | 64 | 1016.5 |
| 20260505184523 | 58 | 360 | 0.9 | 1.7 | 0.00 | 0.00 | 0.00 | 63 | 1016.4 |
| 20260505183028 | 57 | 350 | 0.0 | 1.7 | 0.00 | 0.00 | 0.00 | 63 | 1016.5 |
| 20260505181520 | 57 | 350 | 0.0 | 2.6 | 0.00 | 0.00 | 0.00 | 63 | 1016.5 |
| 20260505180023 | 57 | 232 | 0.0 | 2.6 | 0.00 | 0.00 | 0.00 | 63 | 1016.4 |
| 20260505174518 | 57 | 161 | 0.0 | 1.7 | 0.00 | 0.00 | 0.00 | 61 | 1016.3 |
| 20260505173015 | 56 | 184 | 0.0 | 1.7 | 0.00 | 0.00 | 0.00 | 61 | 1016.2 |
| 20260505171511 | 55 | 185 | 0.0 | 2.6 | 0.00 | 0.00 | 0.00 | 61 | 1016.1 |
| 20260505170010 | 55 | 152 | 0.9 | 2.6 | 0.00 | 0.00 | 0.00 | 61 | 1016.2 |
| 20260505164509 | 55 | 188 | 1.7 | 4.3 | 0.00 | 0.00 | 0.00 | 60 | 1016.2 |
| 20260505163012 | 55 | 23 | 0.0 | 0.9 | 0.00 | 0.00 | 0.00 | 54 | 1016.0 |
| 20260505161504 | 54 | 215 | 0.0 | 2.6 | 0.00 | 0.00 | 0.00 | 55 | 1016.0 |
| 20260505153108 | 53 | 204 | 0.0 | 1.7 | 0.00 | 0.00 | 0.00 | 49 | 1016.0 |
| 20260505151607 | 53 | 206 | 0.0 | 1.7 | 0.00 | 0.00 | 0.00 | 47 | 1015.9 |
| 20260505140109 | 52 | 180 | 0.0 | 0.9 | 0.00 | 0.00 | 0.00 | 40 | 1015.3 |
| 20260505124544 | 52 | 198 | 0.0 | 2.6 | 0.00 | 0.00 | 0.00 | 38 | 1014.9 |
| 20260505123049 | 51 | 293 | 0.0 | 0.9 | 0.00 | 0.00 | 0.00 | 37 | 1014.9 |
| 20260505121542 | 52 | 231 | 0.0 | 1.7 | 0.00 | 0.00 | 0.00 | 37 | 1014.9 |
| 20260505120047 | 52 | 217 | 0.0 | 0.9 | 0.00 | 0.00 | 0.00 | 36 | 1014.8 |
| 20260505114545 | 52 | 231 | 0.0 | 2.6 | 0.00 | 0.00 | 0.00 | 37 | 1014.8 |
| 20260505113038 | 52 | 277 | 0.0 | 2.6 | 0.00 | 0.00 | 0.00 | 38 | 1014.8 |
| 20260505111536 | 52 | 164 | 0.0 | 1.7 | 0.00 | 0.00 | 0.00 | 38 | 1014.7 |
| 20260505101542 | 51 | 148 | 0.0 | 2.6 | 0.00 | 0.00 | 0.00 | 36 | 1014.4 |
| 20260505100034 | 51 | 136 | 0.0 | 0.9 | 0.00 | 0.00 | 0.00 | 34 | 1014.4 |
| 20260505094536 | 51 | 136 | 0.0 | 1.7 | 0.00 | 0.00 | 0.00 | 32 | 1014.4 |
| 20260505093031 | 51 | 136 | 0.0 | 1.7 | 0.00 | 0.00 | 0.00 | 27 | 1014.2 |
| 20260505091526 | 51 | 136 | 0.0 | 1.7 | 0.00 | 0.00 | 0.00 | 26 | 1014.1 |
| 20260505090025 | 51 | 136 | 0.0 | 0.9 | 0.00 | 0.00 | 0.00 | 23 | 1014.1 |
| 20260505084525 | 50 | 136 | 0.0 | 0.9 | 0.00 | 0.00 | 0.00 | 25 | 1014.2 |
| 20260505083023 | 50 | 136 | 0.0 | 3.5 | 0.00 | 0.00 | 0.00 | 27 | 1014.0 |
| 20260505081520 | 50 | 209 | 0.0 | 0.9 | 0.00 | 0.00 | 0.00 | 29 | 1013.9 |
| 20260505080018 | 50 | 210 | 0.0 | 1.7 | 0.00 | 0.00 | 0.00 | 31 | 1013.9 |
| 20260505074517 | 50 | 211 | 0.0 | 0.9 | 0.00 | 0.00 | 0.00 | 34 | 1013.9 |
| 20260505073014 | 50 | 211 | 0.0 | 0.0 | 0.00 | 0.00 | 0.00 | 42 | 1013.8 |
| 20260505071527 | 50 | 211 | 0.0 | 0.0 | 0.00 | 0.00 | 0.00 | 47 | 1013.6 |
| 20260505070008 | 51 | 211 | 0.0 | 0.0 | 0.00 | 0.00 | 0.00 | 51 | 1013.4 |
| 20260505064508 | 52 | 211 | 0.0 | 0.9 | 0.00 | 0.00 | 0.00 | 56 | 1013.3 |
| 20260505063007 | 52 | 212 | 0.0 | 0.9 | 0.00 | 0.00 | 0.00 | 58 | 1013.2 |
| 20260505061505 | 52 | 209 | 0.0 | 2.6 | 0.00 | 0.00 | 0.00 | 60 | 1013.1 |
| 20260505060011 | 53 | 205 | 0.0 | 3.5 | 0.00 | 0.00 | 0.00 | 61 | 1013.2 |
| 20260505054504 | 53 | 285 | 0.0 | 1.7 | 0.00 | 0.00 | 0.00 | 62 | 1013.2 |
| 20260505053003 | 53 | 223 | 0.0 | 2.6 | 0.00 | 0.00 | 0.00 | 63 | 1013.2 |
| 20260505051506 | 53 | 215 | 0.9 | 3.5 | 0.00 | 0.00 | 0.00 | 64 | 1013.1 |
| 20260505041604 | 56 | 183 | 0.9 | 3.5 | 0.00 | 0.00 | 0.00 | 67 | 1012.3 |
| 20260505040101 | 57 | 186 | 0.0 | 1.7 | 0.00 | 0.00 | 0.00 | 68 | 1012.1 |
| 20260505034559 | 58 | 245 | 0.0 | 1.7 | 0.00 | 0.00 | 0.00 | 69 | 1011.8 |
| 20260505034501 | 58 | 245 | 0.0 | 1.7 | 0.00 | 0.00 | 0.00 | 69 | 1011.8 |
| 20260505033100 | 59 | 280 | 0.9 | 1.7 | 0.00 | 0.00 | 0.00 | 69 | 1011.5 |
| 20260505031601 | 60 | 273 | 0.9 | 3.5 | 0.00 | 0.00 | 0.00 | 69 | 1011.3 |
| 20260505030058 | 61 | 286 | 0.9 | 3.5 | 0.00 | 0.00 | 0.00 | 69 | 1011.1 |
| 20260505024606 | 62 | 286 | 1.7 | 5.2 | 0.00 | 0.00 | 0.00 | 68 | 1010.8 |
| 20260505023104 | 64 | 273 | 0.0 | 3.5 | 0.00 | 0.00 | 0.00 | 67 | 1010.6 |
| 20260505021557 | 66 | 188 | 1.7 | 7.8 | 0.00 | 0.00 | 0.00 | 64 | 1010.6 |